Location: Makanda
(37.6176°N, 89.2090°W)
Time: 05:16:11
(UTC+00:00)

Cosmos 1140 Rocket - Pass Details

Date: 23 September 2019
Orbit: 745 x 767 km, 74.1° (Epoch: 15 October)

Event Time Altitude Azimuth Distance (km) Brightness Sun altitude
Rises 02:00:57 0° 336° (NNW) 3,210 7.4 -25.4°
Reaches altitude 10° 02:03:22 10° 331° (NNW) 2,278 6.6 -25.8°
Maximum altitude 02:08:20 50° 257° (WSW) 943 4.2 -26.8°
Enters shadow 02:09:59 36° 206° (SSW) 1,164 4.4 -27.1°
